QPF
0.00 0.00 0.00 0.00 0.00 0.00 0.00 0.00 0.00 0.00 0.00 0.00 0.00 0.00 0.00 0.00 0.00 0.00 0.00 0.00 0.00 0.00 0.00 0.00 0.00 0.00 0.00 0.00 0.00 0.00 0.00 0.00 0.01 0.01 0.01 0.02 0.04 0.04 0.01 0.00 0.00 0.00 0.01 0.00 0.00
0.00 0.00 0.00 0.00 0.00 0.00 0.00 0.00 0.00 0.00 0.00 0.00 0.00 0.00 0.00 0.00 0.00 0.00 0.00 0.00 0.00 0.00 0.00 0.00 0.00 0.00 0.00 0.00 0.00 0.00 0.00 0.00 0.00 0.04 0.10 0.03 0.00 0.00 0.00 0.00 0.00 0.00 0.02 0.00 0.00
0.00 0.00 0.00 0.00 0.00 0.00 0.00 0.00 0.00 0.00 0.00 0.00 0.00 0.00 0.00 0.00 0.00 0.00 0.00 0.00 0.00 0.00 0.00 0.00 0.00 0.00 0.00 0.00 0.00 0.00 0.00 0.00 0.00 0.02 0.03 0.00 0.00 0.00 0.00 0.00 0.00 0.00 0.01 0.00 0.00
0.00 0.00 0.00 0.00 0.00 0.00 0.00 0.00 0.00 0.00 0.00 0.00 0.00 0.00 0.00 0.00 0.00 0.00 0.00 0.00 0.00 0.00 0.00 0.00 0.00 0.00 0.00 0.00 0.00 0.00 0.00 0.00 0.00 0.02 0.00 0.00 0.00 0.00 0.00 0.01 0.00 0.00 0.00 0.00 0.00
0.00 0.00 0.00 0.00 0.00 0.00 0.00 0.00 0.00 0.00 0.00 0.00 0.00 0.00 0.00 0.00 0.00 0.00 0.00 0.00 0.00 0.00 0.00 0.00 0.00 0.00 0.00 0.00 0.00 0.00 0.00 0.00 0.01 0.00 0.00 0.00 0.00 0.01 0.00 0.00 0.00 0.00 0.00 0.00 0.00
0.00 0.00 0.00 0.00 0.00 0.00 0.00 0.00 0.00 0.00 0.00 0.00 0.00 0.00 0.00 0.00 0.00 0.00 0.00 0.00 0.00 0.00 0.00 0.00 0.00 0.00 0.00 0.00 0.00 0.00 0.00 0.00 0.00 0.00 0.00 0.00 0.00 0.00 0.00 0.00 0.00 0.00 0.00 0.00 0.00
0.00 0.00 0.00 0.00 0.00 0.00 0.00 0.00 0.00 0.00 0.00 0.00 0.00 0.00 0.00 0.00 0.00 0.00 0.00 0.00 0.00 0.00 0.00 0.00 0.00 0.00 0.00 0.00 0.00 0.00 0.00 0.00 0.00 0.00 0.00 0.00 0.00 0.00 0.00 0.00 0.00 0.00 0.00 0.00 0.00
0.00 0.00 0.00 0.00 0.00 0.00 0.00 0.00 0.00 0.00 0.00 0.00 0.00 0.00 0.00 0.00 0.00 0.00 0.00 0.00 0.00 0.00 0.00 0.00 0.00 0.00 0.00 0.00 0.00 0.00 0.00 0.00 0.00 0.00 0.00 0.00 0.00 0.00 0.00 0.00 0.00 0.00 0.00 0.00 0.00
0.00 0.00 0.00 0.00 0.00 0.00 0.00 0.00 0.00 0.00 0.00 0.00 0.00 0.00 0.00 0.00 0.00 0.00 0.00 0.00 0.00 0.00 0.00 0.00 0.00 0.00 0.00 0.00 0.00 0.00 0.00 0.00 0.00 0.00 0.00 0.00 0.00 0.00 0.00 0.00 0.00 0.00 0.00 0.00 0.00
0.00 0.00 0.00 0.00 0.00 0.00 0.00 0.00 0.00 0.00 0.00 0.00 0.00 0.00 0.00 0.00 0.00 0.00 0.00 0.00 0.00 0.00 0.00 0.00 0.00 0.00 0.00 0.00 0.00 0.00 0.00 0.00 0.00 0.00 0.00 0.00 0.00 0.00 0.00 0.00 0.00 0.00 0.00 0.00 0.00
0.00 0.00 0.00 0.00 0.00 0.00 0.00 0.00 0.00 0.00 0.00 0.00 0.00 0.00 0.00 0.00 0.00 0.00 0.00 0.00 0.00 0.00 0.00 0.00 0.00 0.00 0.00 0.00 0.00 0.00 0.00 0.00 0.00 0.00 0.00 0.00 0.00 0.00 0.00 0.00 0.00 0.00 0.00 0.00 0.00
0.00 0.00 0.00 0.00 0.00 0.00 0.00 0.00 0.00 0.00 0.00 0.00 0.00 0.00 0.00 0.00 0.00 0.00 0.00 0.00 0.00 0.00 0.00 0.00 0.00 0.00 0.00 0.00 0.00 0.00 0.00 0.00 0.00 0.00 0.00 0.00 0.00 0.00 0.00 0.00 0.00 0.00 0.00 0.00 0.00
0.00 0.00 0.00 0.00 0.00 0.00 0.00 0.00 0.00 0.00 0.00 0.00 0.00 0.00 0.00 0.00 0.00 0.00 0.00 0.00 0.00 0.00 0.00 0.00 0.00 0.00 0.00 0.00 0.00 0.00 0.00 0.00 0.00 0.00 0.00 0.00 0.00 0.00 0.00 0.00 0.00 0.00 0.00 0.00 0.00
0.00 0.00 0.00 0.00 0.00 0.00 0.00 0.00 0.00 0.00 0.00 0.00 0.00 0.00 0.00 0.00 0.00 0.00 0.00 0.00 0.00 0.00 0.00 0.00 0.00 0.00 0.00 0.00 0.00 0.00 0.00 0.00 0.00 0.00 0.00 0.00 0.00 0.00 0.00 0.00 0.00 0.00 0.00 0.00 0.00
0.00 0.00 0.00 0.00 0.00 0.00 0.00 0.00 0.00 0.00 0.00 0.00 0.00 0.00 0.00 0.00 0.00 0.00 0.00 0.00 0.00 0.00 0.00 0.00 0.00 0.00 0.00 0.00 0.00 0.00 0.00 0.00 0.00 0.00 0.00 0.00 0.00 0.00 0.00 0.00 0.00 0.00 0.00 0.00 0.00
0.00 0.00 0.00 0.00 0.00 0.00 0.00 0.00 0.00 0.00 0.00 0.00 0.00 0.00 0.00 0.00 0.00 0.00 0.00 0.00 0.00 0.00 0.00 0.00 0.00 0.00 0.00 0.00 0.00 0.00 0.00 0.00 0.00 0.00 0.00 0.00 0.00 0.00 0.00 0.00 0.00 0.00 0.00 0.00 0.00
0.00 0.00 0.00 0.00 0.00 0.00 0.00 0.00 0.00 0.00 0.00 0.00 0.00 0.00 0.00 0.00 0.00 0.00 0.00 0.00 0.00 0.00 0.00 0.00 0.00 0.00 0.00 0.00 0.00 0.00 0.00 0.00 0.00 0.00 0.00 0.00 0.00 0.00 0.00 0.00 0.00 0.00 0.00 0.00 0.00
0.00 0.00 0.00 0.00 0.00 0.00 0.00 0.01 0.00 0.00 0.00 0.00 0.00 0.00 0.00 0.00 0.00 0.00 0.00 0.00 0.00 0.00 0.00 0.00 0.00 0.00 0.00 0.00 0.00 0.00 0.00 0.00 0.00 0.00 0.00 0.00 0.00 0.00 0.00 0.00 0.00 0.00 0.00 0.00 0.00
0.00 0.00 0.00 0.00 0.00 0.00 0.00 0.00 0.00 0.00 0.00 0.00 0.00 0.00 0.00 0.00 0.00 0.00 0.00 0.00 0.00 0.00 0.00 0.00 0.00 0.00 0.00 0.00 0.00 0.00 0.00 0.00 0.00 0.00 0.00 0.00 0.00 0.00 0.00 0.00 0.00 0.00 0.00 0.00 0.00
0.00 0.00 0.00 0.00 0.00 0.00 0.00 0.00 0.00 0.00 0.00 0.00 0.00 0.00 0.00 0.00 0.00 0.00 0.00 0.00 0.00 0.00 0.00 0.00 0.00 0.00 0.00 0.00 0.00 0.00 0.00 0.00 0.00 0.00 0.00 0.00 0.00 0.00 0.00 0.00 0.00 0.00 0.00 0.00 0.00
0.00 0.00 0.00 0.00 0.00 0.00 0.00 0.00 0.00 0.00 0.00 0.00 0.00 0.00 0.00 0.00 0.00 0.00 0.00 0.00 0.00 0.00 0.00 0.00 0.00 0.00 0.00 0.00 0.00 0.00 0.00 0.00 0.00 0.00 0.00 0.00 0.00 0.00 0.00 0.00 0.00 0.00 0.00 0.00 0.00
0.00 0.00 0.01 0.00 0.00 0.00 0.00 0.00 0.00 0.00 0.00 0.00 0.00 0.00 0.00 0.00 0.00 0.00 0.00 0.00 0.00 0.00 0.00 0.00 0.00 0.00 0.00 0.00 0.00 0.00 0.00 0.00 0.00 0.00 0.00 0.00 0.00 0.00 0.00 0.00 0.00 0.00 0.00 0.00 0.00
0.00 0.02 0.02 0.01 0.01 0.01 0.00 0.00 0.00 0.00 0.00 0.00 0.00 0.00 0.00 0.00 0.00 0.00 0.00 0.00 0.00 0.00 0.00 0.00 0.00 0.00 0.00 0.00 0.00 0.00 0.00 0.00 0.00 0.00 0.00 0.00 0.00 0.00 0.00 0.00 0.00 0.00 0.00 0.00 0.00
0.00 0.05 0.03 0.01 0.00 0.00 0.00 0.00 0.00 0.00 0.00 0.00 0.00 0.00 0.00 0.00 0.00 0.00 0.00 0.00 0.00 0.00 0.00 0.00 0.00 0.00 0.00 0.00 0.00 0.00 0.00 0.00 0.00 0.00 0.00 0.00 0.00 0.00 0.00 0.00 0.00 0.00 0.00 0.00 0.00
0.02 0.00 0.01 0.01 0.00 0.00 0.00 0.00 0.00 0.00 0.00 0.00 0.00 0.00 0.00 0.00 0.00 0.00 0.00 0.00 0.00 0.00 0.00 0.00 0.00 0.00 0.00 0.00 0.00 0.00 0.00 0.00 0.00 0.00 0.00 0.00 0.00 0.00 0.00 0.00 0.00 0.00 0.00 0.00 0.00
0.02 0.00 0.00 0.00 0.00 0.00 0.00 0.00 0.00 0.00 0.00 0.00 0.00 0.00 0.00 0.00 0.00 0.00 0.00 0.00 0.00 0.00 0.00 0.00 0.00 0.00 0.00 0.00 0.00 0.00 0.00 0.00 0.00 0.00 0.00 0.00 0.00 0.00 0.00 0.00 0.00 0.00 0.00 0.00 0.00
0.04 0.01 0.00 0.01 0.00 0.00 0.00 0.00 0.00 0.00 0.00 0.00 0.00 0.00 0.00 0.00 0.00 0.00 0.00 0.00 0.00 0.00 0.00 0.00 0.00 0.00 0.00 0.00 0.00 0.00 0.00 0.00 0.00 0.00 0.00 0.00 0.00 0.00 0.00 0.00 0.00 0.00 0.00 0.00 0.00
MSLP
1020.84 1020.70 1020.18 1020.10 1019.85 1019.95 1019.20 1018.62 1018.59 1018.80 1018.38 1018.00 1017.75 1017.42 1016.97 1016.52 1015.84 1014.87 1012.52 1010.65 1010.87 1011.25 1011.44 1010.21 1009.77 1009.36 1008.92 1008.00 1007.43 1007.14 1005.86 1004.27 1005.87 1005.86 1005.82 1005.98 1006.68 1008.96 1008.31 1008.08 1008.47 1008.79 1008.49 1009.24 1012.38
1020.64 1020.49 1020.18 1019.98 1019.54 1019.81 1019.30 1018.57 1018.41 1018.38 1018.46 1017.99 1017.62 1017.29 1016.91 1016.41 1015.06 1012.27 1010.09 1010.41 1010.89 1011.17 1010.97 1009.56 1008.85 1008.68 1008.05 1007.36 1007.09 1006.49 1005.32 1004.79 1005.56 1007.10 1008.54 1007.03 1007.23 1008.41 1008.17 1007.88 1008.20 1008.80 1010.27 1011.66 1012.70
1020.39 1020.25 1019.92 1019.88 1019.56 1019.53 1019.18 1018.50 1018.35 1018.18 1018.47 1018.01 1017.51 1017.13 1016.80 1016.34 1013.55 1009.45 1009.72 1010.20 1010.73 1011.01 1009.72 1008.82 1008.30 1008.20 1007.40 1006.91 1006.50 1006.10 1005.30 1005.34 1005.18 1006.36 1006.78 1006.58 1007.97 1008.55 1008.68 1008.66 1008.42 1008.19 1010.48 1011.80 1012.10
1020.10 1020.07 1019.86 1019.65 1019.32 1019.21 1019.04 1018.47 1018.09 1018.10 1018.08 1017.72 1017.31 1016.91 1016.48 1015.42 1011.24 1009.49 1010.19 1010.31 1010.64 1010.48 1009.68 1008.67 1008.34 1007.84 1006.93 1006.30 1006.04 1005.88 1005.65 1005.86 1005.92 1007.38 1006.51 1007.05 1007.69 1008.46 1009.26 1009.56 1007.98 1008.54 1009.86 1011.30 1011.53
1019.84 1019.72 1019.64 1019.44 1018.99 1018.97 1018.72 1018.21 1017.74 1017.82 1017.91 1017.63 1017.36 1017.10 1016.03 1013.20 1010.27 1009.69 1010.00 1010.40 1010.35 1010.05 1009.10 1008.44 1008.08 1007.55 1006.57 1006.06 1006.19 1006.32 1006.28 1006.56 1007.64 1006.40 1006.77 1007.60 1007.84 1009.38 1007.56 1008.09 1008.05 1009.10 1010.07 1010.69 1011.30
1019.60 1019.40 1019.29 1019.24 1018.89 1018.65 1018.54 1018.02 1017.70 1017.61 1017.79 1017.49 1017.17 1017.00 1015.29 1011.49 1008.81 1009.00 1009.41 1009.61 1009.20 1009.41 1008.70 1008.18 1007.88 1007.43 1006.73 1006.15 1006.12 1006.44 1006.85 1007.53 1006.94 1007.02 1007.31 1007.08 1007.65 1007.21 1007.90 1008.23 1009.02 1009.88 1010.24 1010.82 1011.43
1019.37 1019.21 1019.20 1018.80 1018.69 1018.36 1018.19 1017.92 1017.45 1017.49 1017.42 1017.23 1017.03 1016.23 1013.65 1010.47 1008.78 1008.64 1009.26 1008.89 1008.77 1008.70 1008.08 1007.89 1007.84 1007.78 1007.23 1006.72 1007.08 1007.23 1007.53 1007.45 1007.26 1007.04 1007.23 1007.10 1007.47 1007.71 1008.34 1008.72 1009.31 1009.76 1010.28 1010.96 1011.32
1019.03 1018.91 1018.90 1018.56 1018.43 1018.09 1018.03 1017.75 1017.23 1017.36 1017.15 1016.95 1016.92 1015.36 1011.74 1009.04 1008.86 1008.49 1008.35 1008.16 1008.33 1008.40 1008.31 1008.24 1008.25 1008.36 1007.97 1007.80 1007.50 1007.79 1008.00 1007.37 1006.81 1007.15 1006.63 1006.98 1006.82 1007.77 1008.57 1009.07 1009.44 1009.97 1010.59 1011.14 1011.77
1018.72 1018.58 1018.60 1018.37 1018.20 1017.83 1017.81 1017.58 1017.02 1017.24 1016.82 1016.83 1016.39 1014.16 1010.22 1009.16 1008.75 1007.68 1007.55 1007.52 1007.95 1008.26 1008.57 1008.83 1008.75 1008.33 1008.16 1007.62 1007.12 1006.95 1006.66 1006.37 1006.50 1006.59 1006.55 1007.21 1007.14 1007.95 1008.50 1008.88 1009.54 1010.25 1010.87 1011.46 1012.07
1018.28 1018.34 1018.38 1018.14 1017.96 1017.64 1017.52 1017.27 1016.81 1017.17 1016.36 1015.50 1014.39 1013.06 1009.87 1007.97 1007.59 1007.52 1007.36 1007.52 1007.33 1008.10 1008.76 1008.75 1008.47 1007.84 1007.64 1007.12 1006.23 1005.67 1005.47 1005.52 1005.53 1006.47 1006.48 1006.54 1006.96 1008.04 1008.53 1008.57 1009.27 1010.03 1010.70 1011.44 1012.46
1017.90 1018.05 1018.06 1017.96 1017.73 1017.55 1017.47 1016.47 1016.17 1015.07 1014.13 1011.86 1010.53 1009.45 1008.51 1008.00 1007.52 1007.18 1006.93 1007.06 1006.91 1007.62 1008.46 1008.10 1007.63 1006.93 1006.61 1006.02 1005.68 1005.02 1004.93 1005.17 1005.46 1006.09 1006.19 1006.33 1007.10 1007.85 1008.44 1008.86 1009.56 1010.14 1010.92 1011.59 1012.35
1017.58 1017.69 1017.98 1017.70 1017.53 1017.50 1016.84 1014.65 1012.80 1013.09 1011.54 1010.53 1010.04 1009.36 1008.89 1008.49 1007.54 1006.69 1006.94 1006.80 1006.48 1007.06 1007.36 1007.17 1007.17 1006.91 1006.07 1005.98 1005.60 1005.20 1005.11 1005.32 1005.59 1006.28 1006.37 1006.49 1007.05 1008.19 1008.92 1009.04 1009.47 1010.09 1010.76 1011.58 1012.54
1017.20 1017.43 1017.63 1017.58 1017.55 1017.37 1015.29 1013.87 1012.80 1012.97 1011.14 1008.77 1008.77 1008.53 1008.18 1008.03 1006.94 1005.99 1006.66 1006.36 1006.17 1006.36 1007.06 1006.64 1006.77 1006.62 1006.43 1006.20 1005.62 1005.24 1005.12 1005.51 1005.42 1006.42 1006.62 1006.20 1006.47 1007.60 1008.36 1008.80 1009.40 1009.87 1010.46 1011.34 1012.41
1016.73 1017.09 1017.37 1017.60 1017.96 1014.79 1013.90 1013.28 1013.39 1013.56 1011.02 1008.18 1007.95 1007.41 1007.68 1007.50 1006.73 1006.10 1006.40 1006.39 1006.23 1006.33 1006.57 1007.30 1007.59 1006.66 1006.37 1005.67 1005.64 1005.47 1005.60 1005.50 1005.60 1005.93 1005.50 1005.83 1005.11 1006.85 1007.86 1008.55 1009.50 1010.23 1010.75 1011.49 1012.23
1016.39 1016.68 1017.10 1017.10 1015.67 1013.85 1012.97 1012.62 1012.95 1013.04 1009.99 1006.73 1006.45 1005.86 1006.20 1006.73 1006.08 1006.36 1006.54 1006.52 1006.21 1006.33 1007.01 1006.92 1006.62 1006.24 1005.85 1005.84 1006.22 1006.30 1006.22 1006.03 1005.90 1005.41 1006.45 1005.36 1005.38 1005.64 1007.49 1008.09 1009.09 1010.09 1010.90 1011.58 1012.56
1015.92 1016.44 1016.87 1017.06 1016.16 1013.51 1013.33 1012.99 1012.91 1011.59 1008.34 1006.63 1005.97 1006.31 1006.47 1006.41 1006.24 1006.08 1006.35 1006.72 1006.65 1006.68 1006.83 1008.47 1006.96 1006.27 1006.10 1006.75 1006.76 1006.85 1006.70 1006.56 1006.34 1005.88 1005.35 1005.15 1005.18 1004.86 1005.85 1006.52 1008.15 1009.86 1010.72 1011.68 1012.47
1015.51 1016.21 1016.44 1014.55 1013.64 1013.33 1013.52 1012.72 1011.46 1009.06 1007.29 1006.22 1005.81 1006.01 1006.15 1006.03 1006.14 1006.29 1006.22 1006.31 1006.27 1006.45 1006.23 1006.61 1006.48 1007.06 1007.07 1006.83 1007.14 1006.89 1006.68 1006.28 1006.22 1005.82 1005.78 1005.92 1005.93 1005.35 1006.30 1007.12 1007.31 1009.32 1010.54 1011.59 1012.45
1015.31 1016.04 1015.57 1014.38 1013.69 1013.56 1013.08 1011.64 1009.21 1007.07 1006.20 1005.69 1005.68 1005.92 1005.77 1005.64 1005.93 1006.12 1005.82 1005.66 1005.92 1005.76 1005.49 1005.72 1006.32 1006.72 1006.99 1006.63 1006.36 1006.63 1006.44 1006.41 1006.61 1006.46 1005.99 1006.40 1005.82 1005.62 1006.87 1007.76 1008.16 1009.19 1010.41 1011.46 1012.31
1015.34 1015.37 1014.43 1013.91 1013.97 1013.72 1012.16 1009.93 1007.77 1006.14 1005.55 1005.55 1005.70 1005.67 1005.45 1005.58 1005.75 1006.07 1006.05 1005.53 1005.56 1005.78 1005.82 1005.42 1005.79 1006.97 1007.39 1007.38 1007.33 1006.79 1007.21 1007.42 1007.47 1008.09 1007.74 1006.49 1005.60 1006.95 1007.38 1007.97 1008.53 1009.21 1010.19 1011.18 1012.01
1014.06 1013.49 1012.37 1012.73 1013.77 1013.26 1011.22 1008.34 1006.97 1005.97 1005.51 1005.21 1005.17 1005.23 1004.92 1005.43 1005.89 1005.93 1005.77 1005.59 1005.58 1006.34 1006.23 1005.57 1005.92 1006.99 1007.75 1007.96 1007.94 1007.71 1007.48 1007.77 1007.99 1008.06 1007.28 1005.42 1005.32 1005.02 1006.96 1007.60 1008.43 1008.90 1009.79 1010.82 1011.70
1012.87 1011.85 1009.66 1011.49 1013.22 1012.12 1009.06 1007.54 1006.39 1005.90 1005.84 1005.30 1004.94 1004.83 1004.63 1005.02 1005.47 1005.51 1005.47 1006.24 1006.43 1006.86 1006.99 1006.38 1006.70 1007.27 1007.84 1007.43 1006.59 1007.50 1007.53 1007.76 1007.84 1007.95 1007.79 1006.71 1005.44 1005.79 1006.36 1007.28 1008.07 1008.63 1009.51 1010.38 1011.24
1011.83 1010.60 1010.29 1010.94 1011.24 1010.03 1008.18 1007.02 1006.48 1005.56 1005.69 1005.50 1005.33 1004.77 1004.61 1004.84 1005.28 1005.30 1005.55 1005.86 1006.81 1006.93 1007.03 1007.16 1006.98 1006.81 1007.06 1007.06 1007.38 1007.14 1006.92 1007.30 1007.84 1008.02 1008.32 1007.99 1006.69 1006.78 1006.91 1007.40 1007.94 1008.32 1009.23 1010.02 1010.96
1010.16 1009.87 1010.69 1009.98 1008.41 1007.86 1007.48 1006.60 1005.90 1005.69 1005.13 1005.30 1005.17 1004.76 1004.92 1004.96 1005.45 1005.63 1006.16 1007.57 1007.73 1007.72 1007.50 1007.80 1007.61 1007.19 1007.10 1007.75 1007.82 1007.40 1007.29 1007.52 1007.78 1008.56 1008.05 1007.74 1006.82 1007.02 1007.38 1007.82 1007.99 1008.20 1008.86 1009.89 1010.87
1008.35 1008.46 1010.21 1009.77 1008.18 1007.11 1006.59 1005.80 1005.79 1005.73 1005.02 1004.91 1004.83 1004.86 1005.05 1005.00 1005.35 1005.63 1006.48 1007.95 1008.51 1008.29 1008.90 1008.73 1007.84 1007.42 1007.18 1006.73 1006.67 1007.19 1007.22 1007.36 1007.80 1008.13 1007.76 1006.90 1006.29 1006.54 1006.98 1007.40 1007.91 1008.48 1008.99 1010.13 1011.54
1006.57 1005.20 1006.36 1006.52 1006.23 1006.37 1005.67 1005.27 1005.01 1004.64 1005.10 1005.17 1004.84 1004.88 1004.72 1004.94 1005.36 1005.69 1006.41 1008.04 1008.77 1009.18 1009.18 1009.00 1008.38 1008.15 1007.93 1008.13 1008.11 1007.55 1007.30 1007.36 1007.49 1007.44 1007.12 1006.63 1005.94 1005.43 1005.92 1006.85 1007.61 1008.46 1009.24 1010.56 1011.79
1005.20 1003.35 1004.43 1004.57 1005.84 1005.94 1005.32 1004.46 1004.08 1003.89 1004.22 1004.72 1004.61 1004.59 1004.54 1004.73 1005.27 1005.34 1006.05 1007.12 1007.58 1008.92 1008.92 1009.08 1008.93 1009.21 1009.25 1009.07 1008.99 1008.35 1007.83 1007.47 1007.11 1007.02 1006.59 1006.18 1005.79 1005.82 1006.04 1006.97 1007.77 1008.44 1009.48 1010.57 1011.72
1004.64 1002.98 1002.89 1003.38 1004.53 1004.35 1003.57 1003.63 1003.42 1003.63 1004.59 1004.72 1004.54 1004.39 1004.87 1005.31 1005.79 1006.00 1006.03 1006.66 1007.12 1008.02 1008.61 1009.16 1009.49 1010.18 1010.21 1010.28 1009.75 1009.09 1007.74 1007.22 1006.80 1006.65 1006.46 1006.12 1006.00 1006.51 1006.99 1007.72 1008.15 1008.67 1009.84 1010.73 1011.78
Thickness
5651 5651 5654 5652 5653 5650 5653 5654 5649 5639 5637 5636 5635 5635 5636 5641 5645 5653 5662 5680 5678 5676 5675 5685 5687 5692 5698 5699 5708 5712 5696 5707 5687 5686 5704 5706 5700 5680 5703 5697 5700 5702 5706 5706 5684
5646 5647 5649 5649 5651 5647 5647 5650 5646 5640 5632 5633 5634 5635 5634 5638 5649 5665 5685 5683 5678 5675 5673 5678 5680 5688 5688 5696 5701 5699 5701 5703 5711 5688 5664 5682 5697 5690 5690 5693 5693 5694 5689 5683 5678
5643 5644 5647 5645 5645 5644 5643 5646 5642 5638 5629 5630 5632 5633 5633 5634 5654 5683 5687 5682 5677 5676 5685 5689 5690 5685 5685 5697 5699 5701 5697 5709 5718 5707 5705 5697 5682 5685 5679 5675 5686 5694 5681 5677 5680
5640 5640 5641 5642 5642 5642 5640 5642 5641 5635 5629 5630 5631 5632 5633 5641 5653 5685 5680 5679 5677 5677 5681 5682 5680 5674 5681 5686 5704 5691 5706 5707 5706 5689 5694 5685 5689 5678 5673 5662 5700 5700 5694 5682 5681
5637 5638 5637 5640 5639 5638 5638 5640 5641 5633 5628 5626 5626 5626 5636 5648 5660 5680 5679 5677 5676 5677 5677 5675 5672 5676 5678 5694 5695 5687 5692 5696 5674 5698 5697 5687 5681 5658 5687 5694 5704 5696 5690 5686 5683
5632 5634 5635 5636 5636 5636 5635 5637 5636 5632 5626 5623 5624 5625 5635 5642 5684 5683 5680 5679 5681 5676 5677 5680 5676 5686 5685 5691 5692 5691 5687 5679 5690 5687 5687 5687 5681 5690 5690 5698 5691 5685 5685 5685 5680
5627 5630 5630 5634 5633 5633 5633 5633 5634 5629 5625 5621 5622 5627 5638 5653 5683 5684 5680 5681 5684 5681 5677 5686 5688 5679 5685 5682 5690 5683 5668 5678 5681 5688 5685 5691 5677 5676 5690 5692 5684 5685 5685 5683 5682
5625 5625 5627 5630 5630 5631 5630 5630 5632 5626 5623 5620 5619 5630 5644 5680 5681 5683 5686 5685 5688 5688 5685 5689 5688 5676 5676 5682 5677 5665 5666 5657 5683 5686 5697 5690 5675 5688 5693 5687 5682 5682 5681 5680 5678
5620 5622 5623 5625 5627 5628 5627 5627 5629 5622 5622 5617 5621 5633 5650 5679 5671 5688 5692 5682 5684 5685 5684 5683 5678 5671 5672 5665 5665 5671 5656 5670 5675 5694 5695 5684 5675 5689 5695 5690 5681 5679 5677 5675 5674
5617 5617 5618 5621 5623 5625 5625 5625 5626 5619 5622 5624 5633 5632 5661 5668 5681 5685 5693 5689 5683 5676 5667 5670 5669 5666 5667 5663 5654 5673 5680 5687 5683 5687 5693 5689 5684 5686 5690 5692 5685 5682 5680 5675 5668
5612 5613 5615 5617 5619 5620 5621 5629 5630 5630 5631 5647 5655 5659 5667 5679 5687 5683 5692 5685 5687 5673 5648 5668 5660 5660 5671 5687 5693 5698 5696 5688 5696 5698 5692 5691 5684 5684 5689 5688 5680 5679 5676 5673 5670
5607 5609 5609 5613 5615 5616 5620 5632 5644 5637 5638 5653 5654 5659 5666 5672 5663 5679 5690 5674 5678 5655 5669 5671 5656 5674 5690 5692 5692 5695 5687 5684 5696 5696 5691 5688 5681 5681 5679 5681 5682 5679 5677 5672 5668
5603 5604 5605 5608 5609 5612 5627 5633 5641 5636 5636 5657 5659 5659 5663 5669 5666 5677 5683 5681 5674 5671 5664 5664 5668 5685 5683 5681 5685 5692 5687 5681 5688 5687 5691 5694 5684 5679 5685 5687 5685 5685 5683 5675 5666
5599 5599 5600 5601 5602 5627 5628 5636 5633 5629 5626 5647 5650 5661 5665 5668 5661 5688 5687 5679 5674 5665 5672 5655 5665 5677 5679 5685 5690 5676 5695 5694 5692 5682 5672 5697 5673 5679 5682 5679 5676 5673 5673 5670 5667
5592 5595 5595 5599 5613 5624 5635 5636 5634 5628 5608 5660 5660 5687 5677 5663 5672 5670 5687 5678 5666 5670 5667 5662 5674 5678 5681 5684 5687 5665 5691 5690 5692 5691 5666 5690 5684 5677 5683 5674 5671 5670 5668 5666 5661
5587 5588 5589 5591 5599 5623 5626 5630 5627 5614 5609 5646 5664 5656 5654 5661 5664 5673 5672 5680 5678 5669 5672 5645 5684 5687 5683 5682 5683 5685 5681 5684 5687 5687 5668 5690 5688 5691 5686 5690 5679 5671 5668 5663 5659
5582 5582 5584 5600 5608 5618 5619 5622 5611 5615 5651 5647 5651 5657 5654 5653 5657 5659 5658 5658 5657 5646 5654 5667 5672 5677 5681 5672 5678 5681 5674 5656 5652 5662 5657 5685 5675 5690 5689 5690 5690 5672 5666 5661 5657
5574 5575 5583 5594 5604 5609 5615 5615 5609 5643 5646 5662 5658 5654 5647 5660 5658 5658 5660 5658 5672 5673 5670 5661 5647 5669 5678 5678 5677 5675 5680 5660 5635 5649 5667 5677 5664 5684 5687 5685 5685 5678 5669 5661 5655
5563 5570 5583 5592 5595 5601 5610 5607 5623 5646 5657 5651 5651 5641 5648 5658 5659 5655 5654 5662 5672 5676 5654 5664 5659 5673 5671 5675 5676 5671 5659 5676 5658 5654 5641 5669 5687 5678 5680 5675 5675 5672 5667 5659 5654
5565 5576 5588 5591 5588 5595 5604 5616 5636 5652 5656 5656 5638 5650 5645 5651 5647 5651 5655 5670 5668 5670 5679 5678 5657 5667 5663 5669 5670 5665 5676 5651 5654 5624 5632 5678 5678 5685 5668 5670 5668 5668 5663 5658 5653
5562 5572 5600 5592 5584 5590 5606 5623 5640 5651 5651 5647 5646 5648 5656 5653 5655 5654 5659 5661 5668 5663 5669 5675 5663 5652 5657 5657 5667 5658 5656 5660 5662 5656 5635 5643 5675 5689 5681 5676 5668 5668 5664 5658 5651
5559 5569 5586 5588 5585 5598 5608 5627 5638 5646 5650 5647 5650 5654 5657 5661 5653 5657 5657 5665 5669 5669 5658 5668 5662 5648 5654 5669 5670 5669 5667 5665 5639 5641 5644 5640 5654 5681 5679 5675 5672 5670 5664 5659 5652
5558 5570 5572 5586 5592 5601 5616 5624 5635 5635 5645 5644 5643 5657 5662 5657 5646 5656 5658 5650 5658 5658 5658 5660 5649 5636 5642 5652 5657 5653 5662 5662 5660 5645 5639 5628 5650 5675 5671 5666 5669 5666 5663 5655 5646
5561 5561 5560 5573 5599 5606 5607 5618 5619 5636 5643 5650 5649 5655 5652 5653 5661 5652 5651 5644 5646 5654 5633 5643 5651 5646 5635 5653 5663 5646 5654 5659 5651 5630 5639 5652 5663 5665 5663 5660 5660 5658 5657 5646 5632
5563 5583 5586 5585 5596 5597 5614 5621 5620 5626 5638 5643 5642 5646 5652 5644 5649 5648 5654 5639 5639 5625 5638 5643 5635 5647 5651 5647 5646 5650 5651 5652 5645 5651 5641 5656 5661 5675 5668 5660 5658 5655 5647 5634 5621
5566 5591 5593 5599 5597 5596 5600 5614 5622 5634 5639 5634 5639 5650 5659 5651 5652 5648 5652 5645 5641 5635 5637 5640 5631 5633 5624 5637 5635 5633 5645 5648 5653 5653 5656 5660 5656 5675 5671 5661 5650 5645 5636 5623 5612
5564 5590 5596 5592 5590 5598 5613 5620 5627 5638 5634 5640 5647 5652 5651 5653 5657 5659 5663 5659 5654 5640 5634 5631 5627 5615 5611 5618 5619 5604 5635 5645 5652 5656 5652 5641 5657 5655 5649 5642 5640 5635 5625 5614 5604